{"data":{"norad_id":57361,"epoch":"2026-09-20T22:07:55.996032Z","epoch_age_seconds":87833,"freshness":"FRESH","line1":"1 57361U 23099AK  26263.92217588 -.00000246  00000+0  56854-6 0  9992","line2":"2 57361  43.0031 219.4455 0000633 284.5181  75.5601 15.27575173176052","mean_motion":15.27575173,"eccentricity":6.33e-5,"inclination_deg":43.0031,"raan_deg":219.4455,"arg_perigee_deg":284.5181,"mean_anomaly_deg":75.5601,"bstar":5.6854e-7,"rev_number":17605,"period_min":94.26704658809,"perigee_km":482.62923585741,"apogee_km":483.49786384702,"semimajor_km":6861.2005498522,"source":"CELESTRAK","updated_at":"2026-09-21T09:00:33.602856Z"}}